Regional Weather Roundup
Issued by NWS

Home | Current Version | Previous Version | Graphics & Text | Print | Product List | Glossary On
Versions: 1 2 3 4 5 6 7 8 9 10 11 12 13 14 15 16 17 18 19 20 21 22 23 24 25 26 27 28 29 30 31 32 33 34 35 36 37 38 39 40 41 42 43 44 45 46 47 48 49 50
000
ASUS45 KTFX 241319
RWRMT
MONTANA HOURLY WEATHER ROUNDUP
NATIONAL WEATHER SERVICE GREAT FALLS MT
719 AM MDT THU JUL 24 2014

NOTE: "FAIR" INDICATES FEW OR NO CLOUDS BELOW 12000 FEET WITH NO
SIGNIFICANT WEATHER AND/OR OBSTRUCTIONS TO VISIBILITY.

* THESE STATIONS ARE NOT UNDER NWS QUALITY CONTROL. THEY DO NOT
   REPORT WEATHER SUCH AS PRECIPITATION OR FOG.

MTZ001>007-043-241400-
WEST OF THE DIVIDE
CITY           SKY/WX    TMP DP  RH WIND       PRES   REMARKS
KALISPELL      LGT RAIN  59  45  60 W15       29.99F
MISSOULA       MOCLDY    57  46  67 NW5       30.04S
BUTTE          CLEAR     48  45  89 SE3       30.07S
MULLAN PASS    CLOUDY    37  36  96 VRB6      30.13S WCI  32
* ESSEX        N/A       60  39  46 SW3G8      N/A
* LINCOLN      N/A       54  51  90 S3G12      N/A
* LOOKOUT PASS N/A       46  39  77 NE2G7      N/A
* POLSON       N/A       57  44  62 SE2        N/A
* RONAN APT    MOCLDY    59  48  67 N/A        N/A
* SEELEY LAKE  N/A       58  45  62 SW2        N/A
* THOMP F APT  MOCLDY    58  34  41 NE3        N/A
$$

MTZ008-052>055-241400-
SOUTHWEST MONTANA
CITY           SKY/WX    TMP DP  RH WIND       PRES   REMARKS
BOZEMAN        PTCLDY    57  46  67 W5        29.95R
DILLON         CLEAR     54  39  57 SW9       30.01R
W YELLOWSTONE  PTCLDY    50  41  71 NW3       30.14S
* THREE FORKS  PTCLDY    54  18  24 N/A        N/A
* BOULDER HILL N/A       54  43  67 E1         N/A
* MONIDA PASS  N/A       56  34  44 SE15       N/A
* RAYNOLDS PAS N/A       57  38  49 SE14       N/A
* WHITEHALL    N/A       53  48  83 N4         N/A
* WISE RIVER   N/A       44  42  93 W3         N/A
$$

MTZ009>010-012-014-046-048-049-054-241400-
EAST SLOPES AND CENTRAL MONTANA
CITY           SKY/WX    TMP DP  RH WIND       PRES   REMARKS
CUT BANK       FAIR      59  50  72 W10       29.93S
GREAT FALLS    CLEAR     63  52  68 S3        29.93S
HELENA         CLEAR     64  52  65 W14       29.95F
MALMSTROM AFB  CLEAR     63  54  73 NW3       29.95R
* CONRAD       CLEAR     55  55 100 N/A        N/A
* DEARBORN     N/A       56  53  90 S2         N/A
* EAST GLACIER N/A       54  43  67 W6G11      N/A
* MONARCH      N/A       54  46  74 N/A        N/A
* PENDROY      N/A       55  51  86 N4         N/A
* ROGERS PASS  N/A       54  48  80 SE8G14     N/A
* SAINT MARY   N/A       58  42  55 SW6G19     N/A
* SWEET GRASS  N/A       59  56  90 NW6        N/A
* WHITE SULPH  N/A       54  51  90 NW3        N/A
$$

MTZ011-013-016-021-035-040-045-047-050-051-241400-
NORTH CENTRAL MONTANA
CITY           SKY/WX    TMP DP  RH WIND       PRES   REMARKS
HAVRE          CLOUDY    66  61  84 NE5       29.83S
LEWISTOWN      CLEAR     61  52  72 SE9       29.90F
* FORT BENTON  CLEAR     63  55  75 S5        29.89R
* CHESTER      N/A       59  55  87 N2         N/A
* DENTON       N/A       59  53  81 W3         N/A
* GEYSER       N/A       63  52  68 SW16       N/A
* JUDITH GAP   N/A       67  50  55 NW8G13     N/A
* LOMA         N/A       61  57  87 W9         N/A
$$

MTZ017>020-022>027-061-062-241400-
NORTHEAST MONTANA
CITY           SKY/WX    TMP DP  RH WIND       PRES   REMARKS
GLASGOW        CLEAR     66  61  84 SE20      29.78F
GLENDIVE       PTCLDY    70  55  59 E13       29.86F
JORDAN         CLEAR     68  59  73 E14       29.81S
SIDNEY         MOCLDY    64  61  90 NE5       29.87F
WOLF POINT     PTCLDY    64  59  84 E8        29.81F
* BEAVER HILL  N/A       63  57  81 E15G22     N/A
* CIRCLE       N/A       64  60  87 NE8G16     N/A
* LINDSAY DVD  N/A       63  57  81 E12G17     N/A
* NAVAJO       N/A       62  58  87 S14        N/A
* SACO         N/A       63  60  90 SE2        N/A
$$

MTZ028>042-056>058-241400-
SOUTHCENTRAL AND SOUTHEAST MONTANA
CITY           SKY/WX    TMP DP  RH WIND       PRES   REMARKS
BAKER          PTCLDY    64  57  78 NE22G31   29.87R
BILLINGS       PTCLDY    70  55  59 NW12      29.85R
LIVINGSTON     MOCLDY    63  45  52 NW12      29.92R
MILES CITY     CLEAR     68  57  68 NE24G36   29.81R
* LAUREL APT   PTCLDY    63  55  75 SW5        N/A
* ROUNDUP APT  PTCLDY    70  54  57 N7         N/A
* ALZADA       N/A       64  62  93 E5         N/A
* HYSHAM       N/A       68  59  73 NW6G12     N/A
* LAME DEER    N/A       75  51  43 W9         N/A
* REED POINT   N/A       63  52  68 W4         N/A
* ROSCOE HILL  N/A       70  35  28 SW5G12     N/A
$$

REGIONAL REPORTS...DAKOTAS
CITY           SKY/WX    TMP DP  RH WIND       PRES   REMARKS
WILLISTON      CLOUDY    64  61  90 SE9       29.89R
DICKINSON      LGT RAIN  63  59  87 E15       29.89R
CROSBY         N/A       63  63 100 E12       29.85F
TIOGA          TSTM      59  59 100 SE5       29.89F
WATFORD CITY   CLEAR     63  63 100 NE7       29.88F
BISMARCK       CLOUDY    68  57  68 SE13      29.93F
GRAND FORKS    MOCLDY    63  57  81 SE8       30.05F
FARGO          PTCLDY    68  57  68 SE10      30.09R
BUFFALO SD     PTCLDY    70  61  73 SE8       29.78S
RAPID CITY     PTCLDY    68  64  87 SE14      29.87F
$$

REGIONAL REPORTS...WYOMING/IDAHO/WASHINGTON
CITY           SKY/WX    TMP DP  RH WIND       PRES   REMARKS
GILLETTE       MOCLDY    81  43  26 SW15      29.89F
SHERIDAN       PTCLDY    63  57  81 N9        29.83F
YELLOWSTONE LA PTCLDY    43  37  79 CALM      30.26S
SALMON         CLEAR     54  45  72 CALM      29.99R
MULLAN PASS    CLOUDY    37  36  96 VRB6      30.13S WCI  32
SAND POINT     MOCLDY    54  46  74 SW5       30.09R
SPOKANE        FAIR      48  43  83 S12       30.09S
$$

REGIONAL REPORTS...ALBERTA
CITY           SKY/WX    TMP DP  RH WIND       PRES   REMARKS
CALGARY        FAIR      55  50  83 SW10G17   29.78F
LETHBRIDGE     PTCLDY    57  54  90 S7        29.89F
MEDICINE HAT   PTCLDY    64  61  90 SW6       29.83F
EDMONTON       FAIR      59  57  93 S7        29.69F
WATERTON GATE  N/A       55  43  64 SW7        N/A
CARDSTON       N/A       57  48  72 SW7        N/A
MILK RIVER     N/A       57  52  83 W6         N/A
$$

REGIONAL REPORTS...SASKATCHEWAN
CITY           SKY/WX    TMP DP  RH WIND       PRES   REMARKS
SWIFT CURRENT  CLEAR     64  59  84 SE6       29.82R
MOOSE JAW      CLOUDY    66  63  90 E8        29.79R
REGINA         MOCLDY    64  61  90 SE21G26   29.79F
VAL MARIE      N/A       59  57  93 CALM       N/A
ASSINIBOIA     N/A       63  61  93 E3         N/A
CORONACH       N/A       63  57  81 S9         N/A

$$




USA.gov is the U.S. government's official web portal to all federal, state and local government web resources and services.